Regional Weather Roundup
Issued by NWS

Home | Current Version | Previous Version | Text Only | Print | Product List | Glossary Off
Versions: 1 2 3 4 5 6 7 8 9 10 11 12 13 14 15 16 17 18 19 20 21 22 23 24 25 26 27 28 29 30 31 32 33 34 35 36 37 38 39 40 41 42 43 44 45 46 47 48 49 50

000
ASUS43 KMKX 221300
RWRWI

WISCONSIN REGIONAL WEATHER ROUNDUP
NATIONAL WEATHER SERVICE MILWAUKEE/SULLIVAN WI
700 AM CST MON JAN 22 2018

NOTE: "FAIR" INDICATES FEW OR NO CLOUDS BELOW 12,000 FEET WITH NO
SIGNIFICANT WEATHER AND/OR OBSTRUCTIONS TO VISIBILITY.

WIZ001-002-006>008-014>016-023>028-221400-
NORTHWEST WISCONSIN

CITY           SKY/WX    TMP DP  RH WIND       PRES   REMARKS
SUPERIOR ARPT  LGT SNOW  28  27  96 NE20G28   30.02R WCI  14
ASHLAND        LGT SNOW  29  28  96 NE20G28   29.99F FOG     WCI  16
HAYWARD        CLOUDY    30  24  78 NE18G26   29.89F WCI  18
SIREN          CLOUDY    30  26  84 NE14G20   29.90F WCI  19
CUMBERLAND     CLOUDY    30  27  86 NE17      29.84F WCI  18
RICE LAKE      CLOUDY    31  29  90 N17       29.85F WCI  20
CHETEK         NOT AVBL
LADYSMITH      CLOUDY    32  29  87 NE18      29.85F WCI  20
EAU CLAIRE     NOT AVBL
MENOMONIE      CLOUDY    35  31  85 N17       29.79F WCI  24
NEW RICHMOND   CLOUDY    32  27  80 NE18G26   29.82F WCI  20
OSCEOLA        CLOUDY    32  28  84 N13       29.87F WCI  22
$$

WIZ003>005-009-010-017-018-221400-
NORTH CENTRAL WISCONSIN

CITY           SKY/WX    TMP DP  RH WIND       PRES   REMARKS
MANITOWISH WTR CLOUDY    28  28 100 NE14      29.90F WCI  17
ARBOR VITAE    CLOUDY    32  30  94 NE9G17    29.88F WCI  24
WOODRUFF       CLOUDY    32  30  94 NE9G17    29.88F WCI  24
RHINELANDER    CLOUDY    31  29  92 NE13      29.86F WCI  21
EAGLE RIVER    CLOUDY    29  29  99 NE13G18   29.89S WCI  19
LAND O LAKES   CLOUDY    29  28  98 NE8       29.93F WCI  21
PHILLIPS       CLOUDY    30  29  97 NE14G21   29.85F WCI  19
TOMAHAWK       CLOUDY    31  28  88 NE13G18   29.85F WCI  22
MEDFORD        CLOUDY    32  29  89 NE14G21   29.79F WCI  22
MERRILL        CLOUDY    33  31  92 E14G20    29.83F WCI  23
$$

WIZ029-030-035-036-043>047-221400-
CENTRAL WISCONSIN

CITY           SKY/WX    TMP DP  RH WIND       PRES   REMARKS
WAUSAU         LGT SNOW  33  30  88 NE15      29.78S FOG     WCI  23
MOSINEE        LGT SNOW  34  32  93 NE14G25   29.78F WCI  24
MARSHFIELD     LGT RAIN  34  32  92 NE21G26   29.72F FOG     WCI  22
STEVENS POINT  LGT RAIN  32  32 100 NE18G26   29.76F WCI  20
WAUPACA        DRIZZLE   36  34  92 NE13G18   29.78F WCI  27
WAUTOMA        LGT RAIN  34  32  92 NE22G30   29.71F WCI  22
WISC RAPIDS    RAIN      34  33  96 E15G28    29.72F FOG     WCI  24
CAMP DOUGLAS   LGT RAIN  35  35  99 NE9       29.68F WCI  27
$$

WIZ011>013-019>022-031-037>040-048>050-221400-
NORTHEAST WISCONSIN

CITY           SKY/WX    TMP DP  RH WIND       PRES   REMARKS
ANTIGO         CLOUDY    31  30  95 NE14G25   29.83F WCI  21
SHAWANO        CLOUDY    35  32  90 NE15G22   29.83F FOG     WCI  25
OCONTO         CLOUDY    33  32  96 NE14G20   29.87F WCI  23
STURGEON BAY   MIX PCPN  34  33  96 NE16      29.85F FOG     WCI  24
GREEN BAY      LGT RAIN  33  31  92 NE29G39   29.79F FOG     WCI  19
MANITOWOC      NOT AVBL
APPLETON       LGT RAIN  34  34 100 NE23      29.74F WCI  22
CLINTONVILLE   DRIZZLE   34  32  93 NE16G25   29.81F WCI  23
OSHKOSH        CLOUDY    34  33  96 NE17      29.73F FOG     WCI  23
$$

WIZ032>034-041-042-053>061-221400-
SOUTHWEST WISCONSIN

CITY           SKY/WX    TMP DP  RH WIND       PRES   REMARKS
LA CROSSE      RAIN      38  36  92 NE13G24   29.67F FOG     WCI  30
SPARTA         RAIN      34  33  96 NE13G21   29.70F WCI  25
VIROQUA        CLOUDY    35  35 100 NE18G28   29.62S WCI  24
BOSCOBEL       LGT RAIN  37  35  92 NE9G18    29.62F FOG     WCI  30
PRAIRIE DU CHI DRIZZLE   37  35  90 CALM      29.59F
PLATTEVILLE    CLOUDY    37  37 100 NE20G26   29.55F WCI  27
$$

WIZ056-057-062-063-064-067-068-221400-
SOUTH CENTRAL WISCONSIN

CITY           SKY/WX    TMP DP  RH WIND       PRES   REMARKS
REEDSBURG      DRIZZLE   34  34 100 E12       29.68F WCI  25
BARABOO/DELLS  LGT RAIN  34  33  98 NE16G25   29.66F WCI  23
LONE ROCK      CLOUDY    37  35  92 E18G26    29.62F WCI  27
MINERAL POINT  CLOUDY    37  37 100 NE17G24   29.57F WCI  28
MADISON        RAIN      37  36  96 NE17G24   29.65F FOG     WCI  27
MIDDLETON      CLOUDY    37  37 100 E18       29.63F WCI  27
WATERTOWN      LGT RAIN  37  37 100 NE10      29.65F WCI  29
MONROE         LGT RAIN  36  36 100 NE14      29.57F WCI  27
JANESVILLE     RAIN      39  39 100 NE9       29.61F WCI  33
$$

WIZ051-052-058>065-066-070>072-221400-
SOUTHEAST WISCONSIN

CITY           SKY/WX    TMP DP  RH WIND       PRES   REMARKS
MILWAUKEE      RAIN      37  37 100 NE14      29.67F VSB 1/2 WCI  28
WAUKESHA       RAIN      36  36 100 E10G18    29.69F VSB 1   WCI  28
MILWAUKEE/TIMM RAIN      36  34  93 NE10      29.71F WCI  28
RACINE         RAIN      38  38 100 NE7       29.68F FOG     WCI  33
BURLINGTON     LGT SNOW  37  36  96 NE10G16   29.64F WCI  30
KENOSHA        HVY RAIN  41  39  93 E13       29.65S
FOND DU LAC    CLOUDY    37  34  89 NE18G26   29.71F WCI  27
SHEBOYGAN      LGT RAIN  36  36 100 NE18G25   29.74F FOG     WCI  26
WEST BEND      RAIN      36  36 100 NE20      29.71F WCI  25
JUNEAU         CLOUDY    36  35  98 NE16      29.69F FOG     WCI  26
$$

LSZ147-162-221400-
LAKE SUPERIOR

STATION/POSITION TIME  TEMP    WIND        PRES    WAVE
                       AIR SEA DIR/SP/G            HT/PER
                 (UTC) (F)     (DEG/KT/KT) (MB)    (FT/S)
DEVILS ISLAND    1200   27      60/ 22/ 23 1018.0F
SAXON HARBOR     1240   30      50/ 19/ 24 1015.2S
$$

LMZ867-665-643>646-221400-
LAKE MICHIGAN

STATION/POSITION TIME  TEMP    WIND        PRES    WAVE
                       AIR SEA DIR/SP/G            HT/PER
                 (UTC) (F)     (DEG/KT/KT) (MB)    (FT/S)
NORTHPORT PIER   1240   34      60/  2/  4 1013.2S
KEWAUNEE LAKESHO 1230   35      30/ 15/ 19 1009.6F
SHEBOYGAN LAKESH 1200   36      40/ 18/ 20 1008.7F
PORT WASHINGTON  1240   37      30/ 16/ 19 1007.8F
MILWAUKEE LAKESH 1230   35      30/ 13/ 14   N/A
KENOSHA   LAKESH 1200   37      20/  6/  9 1005.4
$$

TC  - TEMPERATURE IN CELSIUS
VSB - VISIBILITY IN STATUTE MILES
WCI - WIND CHILL INDEX
HX  - HEAT INDEX




USA.gov is the U.S. government's official web portal to all federal, state and local government web resources and services.